EW6175 Weather Reports


Display with metric or nautical units.
time (UTC)temp
F
wind
direction
speed
MPH
gust
MPH
rain 1hr
in
rain 24hr
in
rain mn
in
humidity
%
barometer
mb
20220118140018 53 90 0.0 0.0 0.00 0.00 0.00 88 1019.3
20220118134526 52 88 0.0 0.0 0.00 0.00 0.00 89 1019.2
20220118133015 51 88 0.0 0.0 0.00 0.00 0.00 88 1019.0
20220118131509 50 88 0.0 1.0 0.00 0.00 0.00 88 1019.0
20220118130011 49 88 0.0 0.0 0.00 0.00 0.00 88 1019.0
20220118124501 48 88 0.0 0.0 0.00 0.00 0.00 87 1018.9
20220118123255 48 88 0.0 2.0 0.00 0.00 0.00 87 1018.9
20220118121608 48 88 0.0 1.0 0.00 0.00 0.00 87 1018.9
20220118120052 48 88 0.0 0.0 0.00 0.00 0.00 87 1018.8
20220118114656 48 88 0.0 0.0 0.00 0.00 0.00 87 1018.8
20220118113105 48 88 0.0 0.0 0.00 0.00 0.00 86 1018.8
20220118111549 47 88 0.0 1.0 0.00 0.00 0.00 86 1018.6
20220118110108 47 88 0.0 1.0 0.00 0.00 0.00 86 1018.4
20220118104620 47 88 0.0 0.0 0.00 0.00 0.00 85 1018.3
20220118103045 47 88 0.0 1.0 0.00 0.00 0.00 85 1018.5
20220118101606 47 88 0.0 0.0 0.00 0.00 0.00 85 1018.8
20220118100120 47 88 0.0 1.0 0.00 0.00 0.00 84 1018.8
20220118094639 46 88 0.0 0.0 0.00 0.00 0.00 82 1019.0
20220118093056 46 88 0.0 1.0 0.00 0.00 0.00 81 1019.0
20220118091545 46 88 0.0 0.0 0.00 0.00 0.00 80 1019.2
20220118090046 46 88 0.0 0.0 0.00 0.00 0.00 79 1019.2
20220118084556 46 88 0.0 0.0 0.00 0.00 0.00 79 1019.1
20220118081620 46 88 0.0 0.0 0.00 0.00 0.00 75 1019.2
20220118080041 46 88 0.0 0.0 0.00 0.00 0.00 75 1019.4
20220118074533 47 88 0.0 0.0 0.00 0.00 0.00 75 1019.4
20220118073026 46 88 0.0 0.0 0.00 0.00 0.00 74 1019.4
20220118071545 47 88 0.0 0.0 0.00 0.00 0.00 73 1019.5
20220118070023 47 88 0.0 0.0 0.00 0.00 0.00 72 1019.6
20220118064525 47 88 0.0 0.0 0.00 0.00 0.00 72 1019.8
20220118063027 47 88 0.0 0.0 0.00 0.00 0.00 72 1019.9
20220118061519 48 88 0.0 0.0 0.00 0.00 0.00 71 1019.9
20220118060029 48 88 0.0 0.0 0.00 0.00 0.00 71 1020.2
20220118054540 47 88 0.0 0.0 0.00 0.00 0.00 71 1020.2
20220118053015 47 88 0.0 1.0 0.00 0.00 0.00 70 1020.3
20220118051535 47 88 0.0 1.0 0.00 0.00 0.00 69 1020.6
20220118050013 47 88 0.0 0.0 0.00 0.00 0.00 69 1020.7
20220118044531 47 88 0.0 0.0 0.00 0.00 0.00 68 1020.8
20220118043021 47 88 0.0 0.0 0.00 0.00 0.00 68 1020.7
20220118041510 47 88 0.0 0.0 0.00 0.00 0.00 67 1020.7
20220118040016 47 88 0.0 0.0 0.00 0.00 0.00 66 1020.7
20220118034517 48 88 0.0 0.0 0.00 0.00 0.00 65 1020.6
20220118033009 48 88 0.0 0.0 0.00 0.00 0.00 64 1020.7
20220118031507 49 88 0.0 1.0 0.00 0.00 0.00 63 1020.8
20220118030033 49 198 0.0 0.0 0.00 0.00 0.00 62 1020.9
20220118024602 49 159 0.0 0.0 0.00 0.00 0.00 62 1020.8
20220118023008 49 159 0.0 0.0 0.00 0.00 0.00 61 1020.7
20220118021510 49 159 0.0 0.0 0.00 0.00 0.00 61 1020.5
20220118020005 49 159 0.0 0.0 0.00 0.00 0.00 59 1020.5
20220118014519 49 159 0.0 0.0 0.00 0.00 0.00 57 1020.6
20220118013003 50 159 0.0 0.0 0.00 0.00 0.00 55 1020.5
20220118011504 51 159 0.0 0.0 0.00 0.00 0.00 54 1020.4
20220118010004 51 159 0.0 0.0 0.00 0.00 0.00 53 1020.2
20220118004501 51 159 0.0 0.0 0.00 0.00 0.00 52 1020.2
20220118003207 52 159 0.0 0.0 0.00 0.00 0.00 51 1020.2
20220118001615 53 159 0.0 0.0 0.00 0.00 0.00 48 1020.1
20220118000219 55 159 0.0 0.0 0.00 0.00 0.00 46 1019.8
20220117234631 56 159 0.0 0.0 0.00 0.00 0.00 43 1019.9
20220117233132 58 159 0.0 6.0 0.00 0.00 0.00 40 1019.7
20220117231640 59 159 3.0 6.0 0.00 0.00 0.00 36 1020.1
20220117230127 61 148 2.0 7.0 0.00 0.00 0.00 33 1019.9
20220117224622 62 153 3.0 7.0 0.00 0.00 0.00 29 1019.9
20220117223130 62 172 2.0 8.0 0.00 0.00 0.00 28 1019.9
20220117221659 63 119 2.0 7.0 0.00 0.00 0.00 27 1020.0
20220117220115 64 127 3.0 7.0 0.00 0.00 0.00 25 1020.0
20220117214748 64 148 2.0 9.0 0.00 0.00 0.00 23 1020.1
20220117213213 64 106 2.0 7.0 0.00 0.00 0.00 21 1020.1
20220117211635 65 143 2.0 7.0 0.00 0.00 0.00 20 1020.1
20220117210131 65 179 3.0 6.0 0.00 0.00 0.00 20 1020.1
20220117204609 65 156 4.0 8.0 0.00 0.00 0.00 20 1020.0
20220117203210 65 116 0.0 4.0 0.00 0.00 0.00 21 1020.1
20220117201620 64 132 1.0 9.0 0.00 0.00 0.00 20 1020.0
20220117194618 63 22 0.0 5.0 0.00 0.00 0.00 23 1020.6
20220117193101 62 22 1.0 8.0 0.00 0.00 0.00 24 1020.6
20220117191631 62 24 2.0 6.0 0.00 0.00 0.00 24 1021.1
20220117190108 62 23 2.0 6.0 0.00 0.00 0.00 23 1021.5
20220117184551 62 23 1.0 4.0 0.00 0.00 0.00 23 1021.5
20220117183108 61 23 3.0 6.0 0.00 0.00 0.00 25 1021.9
20220117181556 61 22 1.0 4.0 0.00 0.00 0.00 27 1022.1
20220117180110 61 22 2.0 6.0 0.00 0.00 0.00 29 1022.3
20220117174611 60 22 2.0 6.0 0.00 0.00 0.00 32 1022.6
20220117173027 60 21 1.0 6.0 0.00 0.00 0.00 32 1022.8
20220117171541 59 21 1.0 5.0 0.00 0.00 0.00 33 1023.0
20220117170023 58 21 2.0 4.0 0.00 0.00 0.00 37 1023.1
20220117164526 58 21 2.0 6.0 0.00 0.00 0.00 35 1023.1
20220117163047 57 17 2.0 5.0 0.00 0.00 0.00 37 1023.1
20220117161506 55 5 2.0 5.0 0.00 0.00 0.00 45 1023.1
20220117160014 54 312 3.0 5.0 0.00 0.00 0.00 59 1023.0
20220117154642 52 302 2.0 5.0 0.00 0.00 0.00 61 1022.9
20220117153112 49 269 1.0 3.0 0.00 0.00 0.00 70 1023.0
20220117151615 46 269 1.0 3.0 0.00 0.00 0.00 81 1022.9
20220117150129 42 268 0.0 0.0 0.00 0.00 0.00 88 1023.1
20220117144607 39 268 0.0 2.0 0.00 0.00 0.00 88 1023.0
20220117143057 36 268 0.0 1.0 0.00 0.00 0.00 88 1022.7
20220117141612 34 268 0.0 0.0 0.00 0.00 0.00 87 1022.6